Stündliche Wetter Barkowo

Heute, 30 Oktober, Freitag

Zeit Temperatur Niederschläge Wind Luftdruck Luftfeuchtigkeit
00:00 +6°C° 0 mm 4 m/S 747 mmHg 89%
01:00 +6°C° 0 mm 4 m/S 747 mmHg 91%
02:00 +6°C° 0 mm 4 m/S 747 mmHg 89%
03:00 +6°C° 0 mm 4 m/S 747 mmHg 87%
04:00 +8°C° 0 mm 3 m/S 747 mmHg 86%
05:00 +7°C° 0 mm 3 m/S 748 mmHg 88%
06:00 +7°C° 0 mm 3 m/S 748 mmHg 90%
07:00 +6°C° 0 mm 2 m/S 748 mmHg 92%
08:00 +7°C° 0 mm 2 m/S 748 mmHg 88%
09:00 +7°C° 0 mm 3 m/S 748 mmHg 85%
10:00 +8°C° 0 mm 3 m/S 748 mmHg 82%
11:00 +8°C° 0 mm 3 m/S 748 mmHg 80%
12:00 +9°C° 0 mm 2 m/S 748 mmHg 78%
13:00 +9°C° 0 mm 2 m/S 748 mmHg 76%
14:00 +9°C° 0.1 mm 2 m/S 748 mmHg 80%
15:00 +9°C° 0.1 mm 2 m/S 748 mmHg 84%
16:00 +8°C° 0.1 mm 2 m/S 748 mmHg 88%
17:00 +8°C° 0.7 mm 2 m/S 748 mmHg 91%
18:00 +8°C° 0.7 mm 2 m/S 748 mmHg 93%
19:00 +8°C° 0.7 mm 2 m/S 748 mmHg 95%
20:00 +9°C° 0.4 mm 1 m/S 749 mmHg 95%
21:00 +9°C° 0.4 mm 1 m/S 749 mmHg 95%
22:00 +9°C° 0.4 mm 1 m/S 749 mmHg 96%
23:00 +9°C° 0.1 mm 1 m/S 750 mmHg 96%

Morgen, 31 Oktober, Samstag

Zeit Temperatur Niederschläge Wind Luftdruck Luftfeuchtigkeit
00:00 +9°C° 0.1 mm 1 m/S 750 mmHg 95%
01:00 +9°C° 0.1 mm 1 m/S 751 mmHg 95%
02:00 +9°C° 0 mm 1 m/S 751 mmHg 95%
03:00 +8°C° 0 mm 1 m/S 751 mmHg 95%
04:00 +8°C° 0 mm 1 m/S 751 mmHg 95%
05:00 +8°C° 0 mm 1 m/S 752 mmHg 95%
06:00 +8°C° 0 mm 1 m/S 752 mmHg 95%
07:00 +7°C° 0 mm 1 m/S 753 mmHg 95%
08:00 +7°C° 0 mm 2 m/S 753 mmHg 91%
09:00 +8°C° 0 mm 2 m/S 753 mmHg 88%
10:00 +9°C° 0 mm 2 m/S 753 mmHg 84%
11:00 +10°C° 0 mm 2 m/S 753 mmHg 81%
12:00 +12°C° 0 mm 2 m/S 753 mmHg 77%
13:00 +13°C° 0 mm 2 m/S 754 mmHg 74%
14:00 +12°C° 0 mm 2 m/S 753 mmHg 77%
15:00 +10°C° 0 mm 2 m/S 753 mmHg 80%
16:00 +10°C° 0 mm 2 m/S 753 mmHg 83%
17:00 +9°C° 0 mm 2 m/S 753 mmHg 85%
18:00 +8°C° 0 mm 2 m/S 753 mmHg 86%
19:00 +8°C° 0 mm 3 m/S 753 mmHg 88%
20:00 +8°C° 0 mm 3 m/S 753 mmHg 88%
21:00 +7°C° 0 mm 3 m/S 753 mmHg 89%
22:00 +7°C° 0 mm 3 m/S 753 mmHg 90%
23:00 +6°C° 0 mm 4 m/S 752 mmHg 89%

übermorgen, 1 November, Sonntag

Zeit Temperatur Niederschläge Wind Luftdruck Luftfeuchtigkeit
00:00 +6°C° 0 mm 4 m/S 752 mmHg 89%
01:00 +5°C° 0 mm 4 m/S 752 mmHg 89%
02:00 +5°C° 0 mm 4 m/S 752 mmHg 88%
03:00 +5°C° 0 mm 4 m/S 751 mmHg 88%
04:00 +5°C° 0 mm 4 m/S 751 mmHg 87%
05:00 +5°C° 0 mm 4 m/S 751 mmHg 87%
06:00 +5°C° 0 mm 4 m/S 750 mmHg 87%
07:00 +5°C° 0 mm 4 m/S 750 mmHg 86%
08:00 +6°C° 0 mm 5 m/S 750 mmHg 83%
09:00 +7°C° 0 mm 5 m/S 749 mmHg 79%
10:00 +8°C° 0 mm 5 m/S 749 mmHg 76%
11:00 +8°C° 0 mm 5 m/S 748 mmHg 75%
12:00 +9°C° 0 mm 5 m/S 748 mmHg 73%
13:00 +10°C° 0 mm 5 m/S 748 mmHg 72%
14:00 +10°C° 0 mm 5 m/S 747 mmHg 76%
15:00 +9°C° 0 mm 5 m/S 746 mmHg 79%
16:00 +9°C° 0 mm 5 m/S 746 mmHg 82%
17:00 +10°C° 0.9 mm 4 m/S 746 mmHg 86%
18:00 +10°C° 0.9 mm 4 m/S 746 mmHg 90%
19:00 +10°C° 0.9 mm 4 m/S 745 mmHg 95%
20:00 +10°C° 0.1 mm 4 m/S 745 mmHg 95%
21:00 +11°C° 0.1 mm 4 m/S 745 mmHg 95%
22:00 +10°C° 0.1 mm 5 m/S 744 mmHg 95%
23:00 +10°C° 0.6 mm 5 m/S 744 mmHg 95%

2 November, Montag

Zeit Temperatur Niederschläge Wind Luftdruck Luftfeuchtigkeit
00:00 +10°C° 0.6 mm 5 m/S 744 mmHg 95%
01:00 +10°C° 0.6 mm 5 m/S 744 mmHg 95%
02:00 +11°C° 0.3 mm 4 m/S 744 mmHg 95%
03:00 +11°C° 0.3 mm 4 m/S 744 mmHg 95%
04:00 +12°C° 0.3 mm 4 m/S 744 mmHg 96%
05:00 +11°C° 0 mm 3 m/S 744 mmHg 94%
06:00 +11°C° 0 mm 3 m/S 745 mmHg 92%
07:00 +10°C° 0 mm 2 m/S 745 mmHg 91%
08:00 +11°C° 0 mm 3 m/S 745 mmHg 89%
09:00 +11°C° 0 mm 3 m/S 745 mmHg 87%
10:00 +11°C° 0 mm 3 m/S 745 mmHg 85%
11:00 +11°C° 0 mm 3 m/S 745 mmHg 86%
12:00 +11°C° 0 mm 4 m/S 745 mmHg 86%
13:00 +12°C° 0 mm 4 m/S 745 mmHg 87%
14:00 +12°C° 0 mm 4 m/S 745 mmHg 89%
15:00 +12°C° 0 mm 5 m/S 745 mmHg 92%
16:00 +13°C° 0 mm 5 m/S 744 mmHg 94%
17:00 +13°C° 0 mm 5 m/S 744 mmHg 94%
18:00 +13°C° 0 mm 4 m/S 744 mmHg 94%
19:00 +14°C° 0 mm 4 m/S 744 mmHg 95%
20:00 +14°C° 0 mm 4 m/S 744 mmHg 95%
21:00 +14°C° 0 mm 4 m/S 744 mmHg 95%
22:00 +14°C° 0 mm 4 m/S 744 mmHg 94%
23:00 +14°C° 0.1 mm 4 m/S 745 mmHg 93%

3 November, Dienstag

Zeit Temperatur Niederschläge Wind Luftdruck Luftfeuchtigkeit
00:00 +14°C° 0.1 mm 4 m/S 745 mmHg 92%
01:00 +14°C° 0.1 mm 4 m/S 745 mmHg 91%
02:00 +14°C° 0.1 mm 4 m/S 746 mmHg 88%
03:00 +14°C° 0.1 mm 4 m/S 746 mmHg 86%
04:00 +14°C° 0.1 mm 4 m/S 746 mmHg 83%
05:00 +13°C° 0 mm 4 m/S 747 mmHg 81%
06:00 +12°C° 0 mm 4 m/S 748 mmHg 80%
07:00 +11°C° 0 mm 4 m/S 748 mmHg 78%
08:00 +11°C° 0 mm 4 m/S 749 mmHg 74%
09:00 +10°C° 0 mm 5 m/S 750 mmHg 69%
10:00 +11°C° 0 mm 6 m/S 750 mmHg 65%
11:00 +11°C° 0 mm 6 m/S 751 mmHg 63%
12:00 +11°C° 0 mm 6 m/S 751 mmHg 61%
13:00 +12°C° 0 mm 5 m/S 752 mmHg 59%
14:00 +10°C° 0 mm 5 m/S 752 mmHg 62%
15:00 +10°C° 0 mm 4 m/S 752 mmHg 65%
16:00 +10°C° 0 mm 3 m/S 752 mmHg 67%
17:00 +9°C° 0 mm 3 m/S 753 mmHg 68%
18:00 +9°C° 0 mm 3 m/S 753 mmHg 70%
19:00 +9°C° 0 mm 3 m/S 754 mmHg 71%
20:00 +8°C° 0 mm 3 m/S 754 mmHg 73%
21:00 +8°C° 0 mm 2 m/S 754 mmHg 76%
22:00 +7°C° 0 mm 2 m/S 754 mmHg 78%
23:00 +7°C° 0 mm 2 m/S 754 mmHg 79%

4 November, Mittwoch

Zeit Temperatur Niederschläge Wind Luftdruck Luftfeuchtigkeit
00:00 +7°C° 0 mm 2 m/S 754 mmHg 80%
01:00 +7°C° 0 mm 2 m/S 754 mmHg 81%
02:00 +6°C° 0 mm 2 m/S 755 mmHg 82%
03:00 +6°C° 0 mm 2 m/S 755 mmHg 83%
04:00 +6°C° 0 mm 2 m/S 755 mmHg 84%
05:00 +6°C° 0 mm 2 m/S 755 mmHg 83%
06:00 +6°C° 0 mm 2 m/S 755 mmHg 83%
07:00 +7°C° 0 mm 1 m/S 755 mmHg 83%
08:00 +7°C° 0 mm 2 m/S 756 mmHg 80%
09:00 +7°C° 0 mm 2 m/S 756 mmHg 77%
10:00 +8°C° 0 mm 2 m/S 756 mmHg 75%
11:00 +8°C° 0 mm 2 m/S 757 mmHg 72%
12:00 +9°C° 0 mm 3 m/S 757 mmHg 70%
13:00 +9°C° 0 mm 3 m/S 757 mmHg 68%
14:00 +9°C° 0.1 mm 2 m/S 757 mmHg 71%
15:00 +8°C° 0.1 mm 2 m/S 758 mmHg 74%
16:00 +9°C° 0.1 mm 1 m/S 758 mmHg 77%
17:00 +9°C° 0.1 mm 1 m/S 758 mmHg 79%
18:00 +8°C° 0.1 mm 1 m/S 758 mmHg 81%
19:00 +7°C° 0.1 mm 0 m/S 759 mmHg 83%
20:00 +8°C° 0 mm 1 m/S 759 mmHg 85%
21:00 +7°C° 0 mm 1 m/S 759 mmHg 87%
22:00 +7°C° 0 mm 1 m/S 760 mmHg 89%
23:00 +6°C° 0 mm 1 m/S 760 mmHg 89%
Mehr zeigen